Theta_e
298 293 291 291 294 294 296 297 297 294 295 292 289 286 286 287 286 287 287 288 289 289 287 288 288 289 291 293 295 291 290 291 291 292 294 296 297 297 299 303 306 308 311 313 314 315 315 317 320 321 322 322 322 323 324 324 324 325 326 325 325 327 328 329 329 330 330 328 328 329 328 326 328 327 327 326 327 326 326 326 325 325 325 325 324 324
296 292 293 294 294 294 295 294 292 292 292 291 288 287 285 286 287 286 290 289 288 290 285 285 286 288 290 293 294 291 289 292 292 292 292 293 294 296 296 297 301 305 307 307 308 307 312 315 317 319 320 320 320 321 322 323 324 324 325 325 326 327 327 328 330 330 330 330 330 328 328 329 329 328 326 327 328 327 327 326 325 325 325 325 325 324
291 291 294 293 294 293 291 291 293 292 290 288 288 286 286 285 285 286 285 287 288 289 287 284 287 288 289 291 292 291 292 294 294 294 295 295 294 294 295 295 297 298 300 303 305 307 309 312 315 317 319 320 321 322 322 323 323 324 324 324 326 327 326 327 328 330 330 332 332 332 331 330 329 330 330 330 330 329 329 328 327 326 326 326 325 325
288 291 293 293 293 292 289 289 291 290 290 288 284 285 287 285 287 287 287 288 288 287 286 285 284 287 288 289 290 292 292 293 294 294 294 294 295 295 296 297 296 296 297 298 300 302 305 308 312 314 316 319 320 321 321 322 322 323 323 324 325 326 326 326 326 325 331 331 333 333 333 332 332 329 329 331 331 330 329 327 328 327 327 327 327 326
290 293 293 292 293 293 290 288 290 289 287 287 288 285 283 284 285 288 288 286 284 286 286 286 286 288 288 290 291 291 289 291 293 292 291 292 293 296 296 295 296 296 297 297 298 299 301 303 306 311 314 317 318 320 321 321 322 323 323 324 324 325 325 326 325 325 327 328 327 329 329 327 328 325 326 327 327 329 327 327 326 326 326 327 327 327
289 293 292 291 290 291 290 287 288 289 284 285 285 287 286 284 285 285 285 286 283 285 284 287 283 285 284 286 289 292 289 289 289 291 292 293 293 293 293 295 296 296 297 297 298 299 299 301 303 306 310 313 316 318 320 322 322 323 324 324 324 325 325 325 325 325 325 325 326 325 325 322 323 323 322 321 323 325 326 325 328 327 326 326 326 326
290 287 292 290 290 289 290 290 288 291 286 285 286 286 286 286 285 284 285 286 281 280 284 284 285 281 282 285 287 288 288 289 290 289 291 292 293 292 293 295 295 296 296 296 297 297 297 298 300 302 306 310 313 316 319 321 322 323 323 324 324 324 324 325 325 325 323 325 325 326 325 325 324 323 325 326 327 328 328 328 328 328 327 326 326 326
287 285 288 289 289 288 287 288 288 291 287 285 286 287 285 285 285 284 283 284 281 282 285 283 283 279 282 288 289 286 285 287 288 289 289 291 292 292 293 295 295 296 296 297 297 297 297 297 298 299 303 307 311 313 317 319 320 321 322 323 323 324 323 324 325 324 324 324 324 324 325 325 325 325 326 327 327 328 328 327 327 327 326 326 327 326
290 285 288 287 289 288 288 290 288 292 289 285 286 288 286 287 285 284 285 282 283 283 281 281 284 281 278 282 283 287 289 289 290 290 290 290 292 293 293 294 295 296 296 296 297 297 297 296 297 298 299 302 306 310 314 316 319 321 322 322 323 323 323 324 324 323 323 323 324 324 325 324 324 326 327 327 326 325 326 327 327 327 326 326 326 327
288 290 290 291 290 289 287 287 289 292 289 286 286 289 289 288 288 288 284 286 281 280 278 281 282 280 281 281 284 283 285 288 290 291 292 291 291 293 294 294 295 295 295 295 295 296 297 297 297 297 298 298 301 305 311 315 317 318 320 320 321 322 323 323 324 323 323 323 322 324 324 323 324 324 324 323 322 322 322 325 326 326 326 325 325 326
287 290 292 289 290 288 285 283 286 291 287 287 289 289 288 287 285 284 283 280 280 274 277 282 281 282 278 282 286 286 286 289 290 289 289 289 289 290 290 292 295 294 293 293 293 294 295 295 295 295 296 297 298 301 307 311 315 317 318 319 319 321 323 322 323 323 323 323 323 323 324 323 323 323 323 321 321 319 318 323 324 324 325 325 324 325
286 286 289 287 286 284 288 286 284 285 289 290 285 286 288 286 285 284 282 283 276 272 274 277 280 282 278 280 282 288 285 284 290 291 293 293 293 292 291 291 291 290 290 291 291 292 293 293 293 293 293 294 295 298 303 308 312 315 317 318 318 320 321 322 322 322 323 323 323 323 324 323 324 324 323 322 322 320 319 321 321 321 322 322 324 324
284 284 283 286 288 290 286 286 283 284 288 289 287 288 286 281 283 279 280 277 277 275 278 277 278 280 281 284 284 284 285 287 285 289 291 293 294 293 291 289 289 290 290 291 292 292 293 294 294 294 293 293 293 295 298 304 309 313 315 317 317 318 320 321 322 322 322 322 323 323 323 324 324 324 324 323 323 322 320 320 320 318 319 320 319 321
280 281 283 285 287 287 291 287 281 282 285 285 286 285 284 279 278 277 276 270 271 276 278 280 279 278 282 283 288 291 292 290 289 287 289 289 290 291 291 291 289 290 290 291 292 293 294 294 294 294 294 293 294 294 296 300 306 310 313 315 316 318 319 320 321 321 321 322 323 323 323 324 324 323 324 324 323 322 321 321 319 319 320 318 319 321
278 276 285 284 283 285 289 291 288 286 284 287 286 289 287 285 279 276 275 276 276 276 276 277 277 277 278 285 285 288 290 288 286 286 286 286 288 289 288 288 288 289 291 291 291 292 293 294 294 294 294 293 293 294 295 298 302 307 310 313 314 316 317 318 319 320 321 322 322 323 323 324 324 324 324 324 323 323 320 319 319 319 319 319 319 321
285 282 282 284 284 285 289 286 286 286 286 284 283 284 282 285 281 275 270 272 270 273 272 274 279 280 283 285 287 287 286 286 287 288 287 289 289 288 288 289 290 290 291 291 291 292 293 293 294 294 294 294 294 294 295 296 300 304 308 311 313 315 317 317 317 319 320 321 322 322 322 323 323 322 323 322 321 321 321 319 319 318 318 319 320 320
282 280 282 283 283 284 287 286 287 290 283 284 283 283 284 283 280 274 273 274 273 272 276 273 278 281 282 287 293 289 285 287 286 285 286 288 288 286 289 292 292 290 290 290 291 292 293 293 293 293 294 294 294 294 295 296 298 302 305 308 310 312 313 315 316 318 319 320 320 320 322 322 321 321 321 322 320 320 319 319 319 319 318 318 317 317
284 279 282 282 283 285 282 284 288 284 284 283 278 284 285 284 283 279 275 268 267 272 274 273 280 280 281 282 284 285 287 290 289 290 286 285 284 286 290 291 291 290 290 289 289 289 291 292 293 293 293 294 295 296 296 296 297 299 303 306 307 308 310 312 313 314 316 317 318 319 319 320 321 321 321 321 319 318 317 316 317 315 314 315 315 315
286 278 282 282 282 285 285 287 286 287 284 288 285 287 287 280 280 279 273 270 268 269 269 270 274 275 280 285 283 284 286 290 290 289 288 288 287 288 288 288 288 287 287 289 289 289 289 290 291 292 292 293 293 295 296 296 296 296 298 301 305 307 309 310 311 312 313 315 317 318 318 319 319 319 319 318 317 316 317 315 315 314 316 314 311 310
283 278 278 283 283 285 285 286 282 283 286 285 285 285 284 283 280 276 279 273 277 269 267 272 267 281 281 282 285 287 283 286 289 287 287 288 288 288 288 288 287 288 289 289 289 288 288 289 290 290 291 293 293 293 294 294 295 296 297 298 300 301 302 303 306 308 311 311 313 314 315 316 317 317 317 317 317 316 316 316 314 313 312 312 310 311
282 282 274 281 283 283 281 284 284 285 281 281 283 282 284 279 281 281 278 275 277 267 267 267 272 277 280 282 287 292 293 290 287 288 288 288 287 286 285 286 287 287 288 288 288 289 289 289 289 290 290 291 293 293 293 294 295 296 295 296 297 300 301 302 305 306 308 309 310 312 313 314 315 315 316 316 316 316 316 315 313 313 313 309 308 308
281 282 278 279 280 280 280 282 282 285 286 283 284 283 284 280 278 280 279 277 270 273 268 265 276 274 280 281 288 289 291 291 288 288 288 288 287 287 286 286 286 287 288 288 289 289 289 288 289 291 291 292 292 294 296 297 297 296 296 295 296 296 299 301 302 304 306 307 310 311 312 313 313 314 314 314 313 314 313 312 311 311 307 307 306 306
282 279 282 275 278 281 284 283 281 280 284 283 285 284 285 282 279 276 277 277 274 274 272 269 269 277 283 283 286 289 288 286 282 284 289 286 284 284 285 285 285 286 286 288 289 290 289 288 288 289 289 291 293 294 295 295 297 297 297 297 296 296 297 298 301 303 306 307 308 310 311 311 310 310 309 311 309 310 309 308 307 306 307 305 301 301
289 280 278 278 281 279 282 282 282 282 285 285 284 283 283 284 283 280 276 276 280 272 274 271 270 278 281 281 281 282 281 282 283 283 286 285 286 286 285 286 285 285 286 288 289 287 288 286 286 289 293 295 296 296 297 297 297 298 298 297 297 296 297 298 300 302 304 305 305 306 304 305 304 305 305 306 305 305 304 304 304 303 304 301 299 299
283 280 282 274 272 276 279 279 282 283 284 282 283 282 283 284 280 274 273 273 275 277 277 275 275 281 283 280 280 282 283 286 285 283 283 286 286 285 286 285 285 285 285 287 288 288 287 288 289 291 292 292 293 293 294 295 297 298 298 296 297 297 297 297 299 301 300 301 301 300 302 301 301 303 303 304 303 303 301 301 300 300 300 298 298 296
282 282 282 277 274 273 272 275 277 280 281 280 275 280 282 284 280 280 279 274 275 275 279 275 280 284 282 280 283 284 282 284 283 282 281 283 286 286 286 285 285 284 285 286 287 288 290 289 287 287 288 291 290 292 294 294 295 295 295 296 295 296 294 295 296 298 299 299 300 300 300 300 300 302 302 302 300 300 299 298 299 298 298 299 297 295
279 283 284 283 282 280 280 278 282 284 282 281 281 282 281 281 282 282 278 274 279 277 277 282 284 282 283 284 284 285 283 285 284 284 284 285 284 284 283 284 284 284 285 285 287 287 286 288 290 290 288 289 289 289 290 290 292 291 292 292 292 293 294 294 296 296 298 298 299 299 298 299 300 300 299 298 297 296 296 297 296 297 296 295 296 295
279 282 284 284 284 284 279 277 284 287 283 283 281 282 282 282 282 283 281 282 282 278 277 284 285 282 284 282 281 283 284 285 283 282 282 282 283 284 285 283 285 285 285 285 285 286 289 291 289 288 289 287 288 288 288 288 288 290 291 292 291 291 293 294 295 296 296 297 298 298 297 296 296 297 296 295 295 295 294 294 294 294 293 294 295 295
285 284 283 283 282 280 280 284 285 286 285 284 284 283 282 283 284 284 284 286 284 283 281 285 284 283 284 286 287 285 286 286 285 285 283 283 283 283 284 284 284 285 284 285 286 287 288 290 291 290 288 288 288 287 289 289 289 289 290 291 291 291 293 293 294 295 296 296 297 294 293 292 291 293 293 293 293 293 293 292 292 292 292 293 292 292
288 281 282 284 280 280 280 283 283 284 283 283 284 284 285 284 284 286 286 287 286 285 287 282 282 284 284 286 286 287 284 284 281 280 282 283 285 285 284 283 285 285 285 286 286 287 288 289 290 289 288 287 288 288 289 290 290 290 291 291 290 291 291 293 294 295 295 295 292 291 291 291 291 292 292 293 293 292 291 291 291 291 291 291 290 290
291 280 286 281 279 278 279 281 281 282 283 282 283 284 285 285 286 286 287 287 286 286 287 285 282 283 284 283 285 284 281 281 283 285 286 287 285 285 284 284 285 286 286 286 287 287 288 288 288 287 287 288 288 289 290 290 291 290 290 290 290 291 291 293 294 294 294 292 290 290 290 291 291 291 291 291 291 290 290 290 290 290 289 289 289 289
289 279 283 282 280 274 276 278 277 279 280 281 282 283 283 284 283 285 284 286 284 284 285 284 282 284 283 284 283 283 283 284 287 287 286 288 288 285 284 285 286 286 286 288 288 287 287 287 287 288 288 289 289 289 289 290 290 290 291 291 291 291 290 292 293 294 292 291 290 290 291 290 291 291 290 290 290 290 289 289 289 289 288 288 288 288
285 280 280 280 280 272 275 276 279 280 280 279 281 284 285 285 286 285 286 287 288 288 284 282 284 286 287 288 287 286 284 287 287 287 289 289 288 285 286 287 287 287 288 289 288 288 287 288 289 289 288 287 288 288 289 289 289 291 292 291 291 290 291 292 293 292 291 290 290 290 290 290 290 290 289 290 289 289 289 289 288 288 288 288 288 289
283 284 278 282 280 273 275 278 281 281 275 279 290 289 287 285 285 284 285 286 287 287 288 290 289 285 286 286 288 288 286 287 290 292 292 293 292 287 285 286 287 289 288 287 286 288 288 288 288 287 287 288 288 289 288 288 290 291 290 290 289 290 291 292 292 292 291 290 290 290 290 290 290 289 289 288 288 289 289 289 288 288 288 287 287 288
286 285 282 280 278 275 275 280 281 276 278 289 285 289 289 289 288 287 288 288 288 288 289 288 289 283 286 289 290 291 291 292 291 291 292 289 287 288 289 288 289 289 289 288 286 286 287 287 287 287 286 286 287 286 287 287 287 287 288 289 289 289 291 290 291 291 290 290 290 289 289 290 290 289 288 288 288 288 288 288 287 287 287 287 287 287
287 286 281 277 278 276 275 281 275 278 286 285 284 285 289 290 289 287 286 288 289 288 289 288 290 290 287 287 287 286 286 288 287 287 288 289 287 290 289 290 291 289 288 289 289 288 286 286 287 287 287 286 285 286 287 288 286 288 288 288 289 289 290 290 290 290 289 289 289 289 290 290 289 288 287 287 287 287 287 286 286 286 286 286 286 286
291 287 286 279 278 278 278 280 282 282 284 285 283 282 284 284 283 284 282 285 288 288 288 289 290 290 290 289 286 283 284 285 286 291 288 289 290 288 290 291 291 289 289 289 286 286 285 286 286 287 285 285 286 286 287 286 286 288 287 287 288 288 288 289 289 289 288 288 288 289 289 289 288 288 287 287 287 286 286 285 285 285 285 285 285 285
292 287 286 284 276 279 279 275 275 278 279 285 289 287 288 287 288 289 287 286 289 290 291 290 289 290 290 289 285 283 286 286 287 290 293 289 288 289 288 288 286 287 286 285 284 284 284 284 284 284 286 285 285 286 286 285 286 287 287 288 288 288 288 288 289 288 288 288 287 288 288 288 288 287 286 286 286 285 284 284 284 284 285 285 284 284
287 289 289 288 280 276 276 278 277 277 282 287 283 284 286 287 288 287 281 281 289 290 290 291 290 290 290 289 285 285 286 284 287 291 292 288 289 288 288 287 286 286 286 286 286 287 285 284 285 284 284 285 285 284 285 285 286 287 287 287 287 288 288 288 288 287 287 287 286 286 287 286 286 286 286 285 285 284 283 283 284 283 284 284 284 283
285 285 288 282 276 280 281 278 279 280 281 281 282 283 287 288 290 287 272 282 284 290 290 290 290 290 289 289 287 287 287 286 288 292 292 289 287 286 288 287 285 285 285 283 282 283 283 283 284 284 285 285 285 283 284 285 286 286 287 286 286 287 287 287 286 285 284 284 284 284 285 285 285 284 285 284 283 283 283 283 282 282 283 283 283 282
279 278 286 284 284 281 282 279 273 278 281 279 278 285 286 291 289 281 278 284 286 288 289 290 290 291 291 289 288 287 289 293 292 287 281 285 287 286 283 281 283 283 283 282 282 283 282 283 284 284 284 284 283 283 284 284 286 286 285 284 284 285 285 283 282 282 282 282 282 282 282 282 283 283 282 283 282 282 281 282 282 282 282 281 281 281
279 282 279 281 282 280 281 280 280 281 281 284 278 285 288 288 278 281 286 283 285 283 284 289 290 290 290 289 289 291 292 292 284 279 284 285 287 285 283 281 281 281 280 281 281 281 282 282 281 281 280 280 282 282 283 284 285 284 283 282 283 282 279 280 281 281 281 281 281 280 280 280 279 280 281 280 281 280 280 280 281 282 281 282 281 280
284 282 280 282 281 276 274 279 271 276 287 289 284 283 284 286 284 286 282 282 283 284 286 286 289 288 290 288 289 290 290 286 288 286 284 284 284 284 283 281 282 282 282 282 281 279 282 283 281 280 279 279 280 282 282 283 283 282 281 283 281 278 279 279 280 280 280 279 279 278 278 278 278 279 279 279 280 280 280 280 280 280 280 280 280 279
288 284 281 283 285 282 280 278 280 286 284 289 288 286 286 284 283 286 288 287 283 284 286 287 285 287 289 290 288 288 288 286 284 285 283 282 282 281 280 280 279 279 279 278 279 280 278 280 278 278 278 278 278 278 280 283 282 280 281 282 277 277 277 278 278 278 278 277 277 276 276 275 276 277 278 279 279 280 279 279 279 280 280 280 280 279
288 288 288 284 287 286 284 286 283 280 286 290 292 290 292 291 285 285 289 291 288 284 284 285 288 286 288 289 288 288 287 286 287 286 287 287 285 283 282 282 281 281 280 280 280 276 277 280 278 277 276 277 276 276 277 278 281 278 280 277 275 276 276 276 276 276 276 275 275 275 274 274 276 276 277 278 279 279 279 278 279 279 278 279 279 280
286 287 280 287 284 284 284 283 284 280 283 287 287 284 292 292 288 284 286 287 287 286 286 289 286 286 285 284 286 282 285 285 285 283 283 283 284 282 279 278 277 277 277 276 277 277 277 276 275 276 276 275 274 275 275 276 279 280 278 274 274 275 275 275 275 275 274 273 273 273 274 275 273 274 275 277 278 279 280 280 280 280 279 280 280 280
284 284 283 282 281 285 285 287 283 283 283 286 290 285 284 288 286 282 284 284 285 283 285 285 285 286 286 285 287 286 285 284 285 284 282 280 280 280 280 280 279 279 279 279 278 275 275 275 276 275 275 276 273 272 272 273 274 276 274 274 274 274 274 275 275 274 273 273 273 272 274 275 276 275 275 274 276 277 279 279 280 280 279 280 279 279
283 282 286 276 284 286 287 283 286 285 287 288 288 286 288 286 283 282 282 282 283 282 283 282 283 283 283 285 286 286 285 284 285 285 283 283 283 280 279 280 279 278 276 277 276 275 275 276 277 275 274 276 273 271 271 271 270 271 272 273 273 272 273 274 275 274 273 273 273 274 275 276 275 276 276 276 277 278 277 277 279 280 280 280 280 279
284 287 286 284 283 287 283 282 284 282 283 283 283 284 284 287 289 285 283 282 283 284 283 282 282 285 286 288 285 284 284 283 285 286 285 284 281 280 280 280 279 279 277 276 274 274 278 276 275 275 275 275 272 269 269 268 268 268 272 272 271 273 274 274 273 273 272 272 273 274 274 275 276 276 276 275 274 273 274 278 278 279 277 276 276 278
286 286 289 286 284 283 286 285 283 284 281 283 285 288 288 287 288 288 283 283 283 284 284 284 282 281 283 284 285 286 287 286 284 283 284 284 284 282 280 279 278 277 276 274 274 273 273 273 274 274 273 272 270 268 268 266 267 268 270 269 270 272 274 273 272 272 272 272 273 273 274 274 274 273 274 274 275 274 273 277 278 277 276 275 280 282
288 288 287 286 286 286 286 285 290 292 290 291 292 291 290 288 287 288 286 286 285 285 285 285 282 280 282 282 280 284 286 287 285 283 282 282 281 280 280 279 278 277 276 274 274 272 273 272 271 272 271 270 268 268 267 267 266 267 267 269 270 272 273 273 273 273 272 272 273 273 274 274 273 273 273 273 274 275 275 275 276 281 281 280 281 282
Wind_Speed
4 10 12 13 11 11 10 10 8 10 10 4 3 5 5 6 2 3 3 1 0 1 5 7 6 7 9 10 12 3 2 2 5 7 7 7 8 9 9 9 10 10 16 4 7 7 8 9 10 10 9 9 9 9 10 11 12 12 13 11 12 12 12 10 11 11 11 12 11 9 12 12 10 8 8 7 7 8 8 8 9 8 7 8 9 9
2 9 12 7 8 12 10 6 7 6 4 7 6 4 2 4 5 4 3 1 1 2 3 1 3 9 12 12 13 5 4 9 9 8 8 9 9 8 8 11 12 15 4 5 8 6 7 9 10 10 9 10 12 11 12 14 15 15 13 14 14 11 12 13 12 9 9 9 10 8 8 7 8 7 8 8 8 8 7 8 9 8 9 8 7 7
9 14 8 6 9 9 6 7 7 9 5 3 5 4 3 4 3 6 2 2 1 2 8 0 3 9 10 12 12 7 8 7 8 9 11 10 9 9 9 12 13 7 10 7 12 8 9 9 10 10 10 11 13 13 15 15 13 12 13 13 14 13 13 13 12 11 11 10 11 11 9 9 6 7 8 8 8 8 9 11 10 9 9 10 8 9
10 8 9 8 10 11 4 6 8 6 5 6 5 5 7 3 5 4 2 0 1 1 2 1 4 9 9 9 13 12 8 7 9 10 12 8 11 11 14 12 9 11 12 13 14 11 11 11 10 9 10 12 12 13 12 12 13 12 13 14 14 14 12 12 13 13 13 12 11 11 10 10 10 7 8 9 9 9 10 10 10 9 9 10 9 10
5 5 7 12 13 15 13 8 11 9 7 2 7 4 5 3 3 4 1 1 2 1 1 2 6 9 7 9 8 6 2 5 8 5 7 7 8 10 5 5 9 14 12 12 12 9 10 11 13 15 14 10 11 13 14 14 14 12 17 17 16 13 14 13 13 14 12 9 8 9 8 6 7 6 6 7 8 10 10 9 9 9 9 10 10 10
6 7 7 9 7 7 9 7 8 10 7 3 3 6 7 5 4 2 0 1 1 4 1 1 4 9 5 9 11 7 2 4 4 5 9 11 9 8 10 13 11 10 10 12 13 11 9 11 10 8 9 12 14 15 16 15 16 16 15 15 14 11 11 13 14 14 11 11 12 10 10 10 9 10 8 11 12 11 9 10 8 8 9 9 9 9
4 2 10 13 12 10 11 10 8 9 7 6 7 8 9 8 6 4 1 3 2 4 1 1 10 8 5 5 6 6 6 10 7 4 8 8 8 7 10 12 12 12 12 10 12 8 6 9 9 10 12 15 14 16 13 11 14 16 14 13 13 13 13 13 13 13 12 12 12 15 14 13 12 12 11 9 9 9 8 7 8 8 9 10 10 9
4 4 6 6 9 10 7 9 6 9 9 6 3 11 5 7 6 4 3 3 3 2 2 2 1 4 10 10 5 5 4 8 9 8 8 10 10 10 10 12 12 12 12 10 12 10 8 8 10 14 14 12 16 12 7 12 12 14 15 14 14 12 12 12 12 13 14 14 13 13 14 13 13 14 13 11 10 8 7 8 9 8 8 9 10 9
11 7 10 10 7 8 13 8 8 10 8 4 4 11 8 8 5 5 3 2 0 4 8 2 1 3 7 8 5 1 11 10 10 9 8 9 11 12 11 12 13 13 11 7 9 10 9 9 11 11 10 11 9 8 12 13 12 12 12 12 11 12 12 12 13 13 14 14 14 13 12 13 12 12 11 8 8 9 9 10 9 9 8 8 9 9
1 11 14 13 10 13 5 7 13 12 8 2 6 5 6 6 5 3 2 1 2 1 6 3 1 4 9 5 3 2 4 12 10 10 10 10 11 10 11 12 12 9 8 7 9 10 9 8 8 9 8 8 11 10 9 10 9 10 11 13 14 15 12 12 13 14 15 15 13 13 14 15 13 10 8 7 9 9 8 10 10 9 8 8 8 8
1 4 1 6 11 4 6 3 3 7 4 7 8 9 5 5 3 4 4 3 2 4 5 5 6 3 8 5 9 9 9 10 10 7 7 7 7 9 10 11 11 9 6 6 8 9 9 7 7 5 9 10 7 7 8 10 11 10 11 13 14 17 13 12 14 14 15 14 14 14 15 17 15 13 11 10 9 7 7 10 9 9 8 7 8 8
3 4 5 2 2 4 5 5 6 1 11 10 3 6 8 3 2 3 2 2 2 6 6 3 4 7 9 4 7 8 3 4 9 12 14 12 12 11 9 10 9 5 5 5 6 9 8 7 7 4 8 8 7 6 9 10 9 10 11 12 14 14 14 13 14 14 15 14 15 15 16 16 15 14 12 13 13 11 12 11 9 7 6 7 7 7
4 5 2 3 4 11 5 10 2 2 3 5 8 8 9 2 3 2 0 3 7 5 1 1 1 1 18 6 6 4 9 8 7 8 9 10 11 10 7 3 4 5 5 6 7 7 6 7 8 6 7 6 6 9 9 10 9 10 11 13 14 15 15 15 14 15 16 15 16 16 16 16 13 14 14 14 13 11 11 9 9 8 8 7 7 7
1 1 2 2 2 6 12 14 6 4 4 8 9 8 8 6 4 5 4 1 5 4 3 0 1 6 4 5 12 15 14 13 10 9 9 7 8 8 4 1 4 6 6 7 6 7 8 7 7 7 7 7 6 7 8 8 9 9 10 12 14 16 13 12 13 15 14 16 16 15 14 13 12 13 13 12 12 11 10 9 10 10 10 10 11 10
7 1 10 8 5 4 7 11 14 8 10 10 3 10 8 8 6 11 8 12 8 5 1 3 2 8 2 4 1 8 8 7 4 5 5 7 9 9 5 6 7 8 8 5 6 8 9 9 7 8 7 7 7 7 7 8 8 8 10 11 13 13 12 13 14 12 15 14 14 12 12 12 11 12 11 11 10 9 9 9 10 10 9 9 10 10
18 5 3 0 3 6 14 2 6 11 8 3 4 5 4 10 4 6 3 3 2 3 0 2 7 3 5 3 7 6 6 6 6 7 5 10 7 3 7 8 8 8 8 6 7 8 9 8 8 8 7 8 7 7 6 7 8 9 10 10 11 13 11 11 11 12 13 13 11 12 13 13 12 10 9 8 7 8 9 10 10 10 10 10 9 9
2 4 2 5 4 4 5 3 1 9 11 7 6 11 4 2 9 6 2 1 4 3 8 2 8 7 7 8 13 4 1 6 5 5 7 10 6 4 7 10 8 4 5 6 8 8 8 7 8 8 8 6 6 6 8 8 8 9 9 9 10 10 8 9 10 12 11 11 10 12 12 11 10 10 11 10 10 10 9 9 9 9 10 9 8 8
14 5 2 2 4 2 0 0 6 1 4 8 6 10 1 2 6 4 3 2 2 5 7 3 11 4 1 11 3 4 7 10 7 10 4 4 2 4 8 8 8 7 6 6 7 8 8 8 8 8 7 7 7 7 7 8 7 7 7 8 9 8 10 9 8 9 10 10 11 10 10 10 11 10 10 9 9 8 8 8 8 6 7 8 9 8
9 6 1 2 1 2 1 5 3 1 3 10 8 5 9 5 7 2 5 2 5 3 4 4 3 6 9 10 1 1 7 12 13 5 1 5 4 6 8 9 7 7 6 5 5 6 7 6 7 7 8 7 6 6 6 5 5 6 6 7 8 9 9 8 7 7 7 8 9 9 10 10 9 8 8 7 6 7 8 9 8 9 9 7 6 7
4 8 1 2 3 2 1 3 12 7 2 2 3 6 0 1 1 6 6 3 6 5 1 7 4 9 7 8 8 7 6 10 9 6 7 9 9 8 7 7 6 5 5 6 6 6 7 7 7 7 7 7 5 5 4 5 3 5 5 6 7 5 4 4 5 6 7 7 6 6 6 7 8 8 8 8 9 8 9 9 9 8 7 8 7 7
3 3 6 1 2 2 4 6 13 12 10 4 6 7 2 0 2 5 1 3 4 5 5 1 5 6 7 7 11 16 14 11 10 8 8 5 5 6 7 7 6 4 5 6 6 7 7 7 7 6 5 5 5 4 3 2 2 3 3 4 5 7 7 7 7 6 7 6 7 7 9 8 8 9 9 10 10 10 10 9 9 9 9 7 8 8
5 2 11 6 5 8 3 2 2 9 9 7 8 9 8 7 5 10 9 3 2 4 3 5 10 3 7 5 10 8 8 8 7 5 2 2 6 8 6 6 6 6 6 6 5 5 6 6 6 5 4 4 4 3 3 2 2 2 3 4 4 4 5 6 6 7 7 7 8 9 9 9 8 9 9 10 9 10 9 9 9 9 7 9 8 8
6 4 10 6 5 5 2 2 2 1 2 5 7 8 7 4 5 3 9 6 3 0 6 3 0 9 7 5 7 9 4 3 4 1 1 3 6 5 7 8 6 7 7 7 6 5 5 5 5 4 4 4 4 3 3 3 3 3 4 4 4 5 6 5 5 4 4 5 6 7 7 7 7 7 8 9 8 9 8 7 6 7 8 7 7 5
9 6 7 3 2 3 2 1 1 1 3 2 5 2 8 12 6 5 2 5 8 2 2 1 2 9 4 2 4 5 4 4 1 1 1 5 7 7 6 6 5 6 5 5 5 5 4 4 3 2 3 3 4 4 4 4 4 4 4 4 3 5 5 4 4 5 5 4 4 4 4 5 4 5 6 7 5 6 6 6 6 6 7 7 7 8
5 3 10 7 3 1 2 2 2 2 1 5 6 4 5 5 4 2 4 1 3 10 7 7 8 9 4 3 3 2 4 7 3 3 5 5 6 7 6 6 5 5 6 7 6 5 5 3 3 3 4 4 4 4 5 4 3 3 3 2 3 3 3 3 3 4 4 4 5 5 6 5 6 6 7 7 6 7 7 6 6 6 8 8 7 7
6 7 10 12 15 14 11 14 17 17 14 2 1 4 2 7 8 6 6 1 4 3 10 7 13 4 3 4 3 3 3 5 3 6 5 7 7 7 6 6 5 4 6 6 7 6 3 3 4 5 5 5 4 4 3 3 4 4 2 2 1 1 1 2 2 3 4 4 6 5 6 6 5 6 7 7 6 7 7 7 7 7 6 8 9 7
4 4 6 11 15 16 8 4 5 13 5 7 2 8 4 2 4 4 5 3 13 4 7 14 15 2 2 4 2 4 2 8 3 2 5 7 7 8 7 7 5 5 6 7 6 6 6 5 7 6 5 5 4 3 3 2 3 2 3 2 2 1 1 1 1 2 3 4 5 5 5 6 6 6 5 5 5 5 6 6 6 8 8 6 9 10
4 5 11 11 11 5 5 4 6 15 11 8 11 10 10 10 8 8 9 16 7 10 10 18 16 8 10 5 7 6 5 6 6 5 6 6 7 7 4 2 5 7 7 6 6 7 7 7 5 6 6 5 5 3 3 2 2 2 1 2 1 0 0 0 1 1 2 3 3 4 4 3 4 5 5 6 6 6 5 6 6 6 6 8 8 9
8 10 5 5 5 3 2 11 10 10 13 14 13 13 14 15 13 16 19 20 15 13 21 14 10 14 13 10 11 7 7 7 6 7 7 4 4 6 3 3 5 7 6 4 7 6 6 7 7 7 6 5 3 4 4 3 3 2 2 1 1 1 1 1 2 2 2 2 3 2 3 3 3 4 6 6 7 7 6 6 6 6 6 6 6 5
8 5 7 8 5 4 2 7 5 13 6 11 14 17 17 16 18 21 24 22 17 17 25 4 6 13 7 10 10 11 7 6 5 3 5 4 6 4 1 4 6 8 6 5 5 5 6 8 7 6 4 3 6 6 6 6 6 6 5 4 3 3 2 3 4 4 3 3 3 3 3 4 4 4 4 6 6 6 6 6 6 7 6 6 6 6
13 6 14 5 6 2 3 3 2 5 10 10 9 14 17 20 23 27 26 20 13 18 20 12 6 13 8 8 6 1 1 2 5 7 8 9 7 6 5 5 8 8 7 7 7 7 5 5 3 3 4 7 8 9 9 8 7 6 5 5 5 5 4 4 5 4 5 5 4 4 5 5 5 5 5 5 6 6 6 7 6 7 7 7 7 8
9 3 6 7 9 2 2 4 3 5 3 7 11 13 17 22 24 23 18 9 7 19 20 10 11 21 4 7 4 4 3 6 10 9 7 7 10 7 6 8 9 8 7 8 7 5 5 6 6 7 9 9 8 7 7 7 7 6 7 7 7 6 5 6 6 7 6 6 6 5 6 6 6 6 6 6 6 6 6 7 7 7 7 8 8 7
6 8 9 9 10 1 2 4 9 9 7 2 9 23 29 21 10 5 11 13 20 18 9 11 25 1 9 10 8 8 6 8 8 8 10 13 11 6 9 10 9 8 9 8 6 6 6 8 8 6 5 4 6 7 8 6 6 7 6 6 5 4 5 5 6 7 7 6 6 6 6 6 7 7 6 6 6 6 7 7 8 8 7 8 7 8
7 9 5 6 8 3 4 6 4 7 5 16 20 14 15 18 20 17 18 18 16 8 17 18 14 5 8 10 12 9 8 8 12 16 15 13 10 7 7 8 10 10 7 5 6 7 8 7 7 5 5 6 7 8 6 6 7 6 5 5 4 5 5 5 5 6 7 7 6 6 6 6 7 7 6 7 7 7 8 6 7 6 5 7 6 7
13 9 7 2 7 6 4 4 7 9 16 16 7 13 16 18 18 25 26 20 20 20 18 13 12 5 10 13 13 15 15 15 11 11 13 8 5 5 7 9 11 10 8 7 6 8 9 7 5 5 5 6 7 5 5 6 6 6 5 5 7 5 6 4 5 4 5 7 6 6 6 7 7 8 7 7 5 5 5 6 6 6 6 6 7 8
14 13 6 4 6 5 4 8 8 19 8 5 2 5 16 21 26 22 21 21 19 17 20 21 23 14 10 11 9 5 5 8 8 12 13 9 5 9 10 12 11 8 8 9 10 10 5 5 6 5 5 4 5 6 7 8 7 8 8 6 6 6 5 6 6 5 5 6 6 7 7 8 8 8 7 7 6 7 7 6 7 8 6 6 5 5
19 9 9 5 1 10 8 11 15 7 10 7 4 7 11 13 8 15 14 17 13 13 16 21 22 15 15 9 6 4 2 2 7 17 8 13 14 11 13 14 10 8 10 9 5 6 5 5 5 6 4 4 6 6 7 6 6 7 8 8 7 7 7 7 7 7 7 7 7 7 7 7 9 8 8 7 8 8 8 9 8 7 6 8 7 8
14 16 6 13 2 2 11 8 1 7 14 21 17 3 6 4 10 12 11 18 11 20 20 19 19 18 17 12 7 5 3 2 14 18 18 12 11 12 13 8 5 6 6 4 3 4 3 4 4 3 4 4 5 5 5 6 7 6 7 8 8 9 8 9 9 8 9 8 8 8 8 8 9 9 8 8 9 9 7 7 6 7 7 10 10 9
5 2 13 15 6 5 4 10 10 13 22 12 6 7 9 12 13 10 4 16 13 19 18 23 22 18 17 13 9 9 8 9 19 19 7 8 11 10 9 8 9 7 7 7 7 7 4 4 3 3 2 3 5 4 5 7 8 8 8 7 7 8 9 10 9 9 9 8 7 7 7 7 7 8 9 9 8 9 10 9 9 7 6 6 6 8
6 6 10 7 7 10 12 10 16 8 9 1 6 6 15 15 17 9 3 19 2 20 20 21 21 18 15 15 14 15 16 17 19 17 6 6 7 9 11 10 8 6 6 4 3 3 2 1 3 3 4 5 4 5 6 7 7 7 8 8 7 8 8 6 4 4 4 5 6 6 6 5 7 7 9 9 8 7 7 6 7 7 7 6 5 6
5 1 10 19 16 10 10 9 4 8 4 2 4 9 13 20 15 11 22 10 8 12 16 18 21 20 20 17 16 15 19 21 13 2 7 5 5 3 1 1 3 4 5 3 2 1 3 3 3 4 4 3 4 5 5 6 6 6 4 5 6 8 4 4 5 6 6 6 6 5 5 4 5 7 5 5 7 7 6 6 7 8 8 9 7 7
4 6 4 3 10 15 15 11 12 7 6 11 4 13 15 11 10 23 6 1 7 6 5 14 18 16 13 16 15 17 16 16 3 6 5 6 7 5 4 3 3 2 1 0 2 3 4 4 3 4 3 2 6 6 6 7 7 5 5 5 6 3 5 6 6 7 7 6 5 5 5 5 4 4 6 6 8 8 7 5 6 7 8 7 8 10
19 14 15 15 4 8 3 8 2 14 12 22 11 3 8 12 6 5 3 0 3 6 12 8 11 9 14 13 15 16 12 6 7 6 6 5 6 7 8 8 7 7 6 4 3 2 5 5 4 3 3 2 4 5 6 7 7 6 5 7 6 6 6 7 7 8 7 7 7 7 7 6 7 7 6 7 8 9 9 7 8 7 8 9 9 10
10 12 7 8 12 18 14 14 16 7 9 21 23 16 11 6 4 8 8 5 1 5 8 8 6 9 12 14 16 14 13 8 4 5 5 5 4 2 2 3 3 3 3 1 2 5 4 5 4 4 3 2 3 3 4 6 6 5 6 6 5 5 4 6 5 6 6 6 6 6 6 5 6 6 6 8 8 8 9 9 8 8 8 8 9 9
16 18 11 15 12 12 14 15 2 2 9 14 20 7 16 16 5 7 3 9 8 5 4 4 10 7 11 13 13 15 11 11 12 10 11 12 9 8 8 7 7 6 6 6 4 4 4 7 7 5 3 2 3 3 4 4 7 5 6 4 4 4 5 5 5 5 5 5 5 5 5 5 5 6 6 7 9 10 9 9 9 9 6 7 8 8
3 6 2 7 5 4 5 3 1 3 6 10 3 3 16 19 8 3 1 4 3 6 11 10 9 11 9 6 8 4 9 7 6 6 7 5 7 5 3 4 3 3 4 3 3 4 4 4 5 5 5 2 1 3 3 4 6 8 5 6 5 5 6 7 6 5 5 4 4 4 4 6 4 4 5 6 5 6 8 10 10 9 9 7 7 7
1 4 3 5 1 9 18 13 6 6 4 12 15 4 3 3 5 4 1 3 1 4 9 1 6 11 13 11 12 11 9 7 10 7 5 4 5 7 8 7 7 7 9 8 6 6 6 6 6 6 5 6 2 2 3 4 3 4 7 8 7 6 7 7 7 7 6 6 5 5 5 7 6 5 5 4 4 4 5 5 6 8 9 8 8 8
6 5 5 3 11 17 14 9 10 10 14 15 12 5 3 4 2 5 4 2 2 2 4 3 5 5 5 8 9 10 9 9 10 9 7 8 7 7 7 8 8 6 4 4 6 5 5 6 6 7 6 6 5 2 2 3 3 4 6 6 6 6 7 7 7 8 7 7 6 6 6 7 8 8 7 6 6 7 6 5 6 8 10 11 11 11
5 9 11 10 10 12 2 6 6 3 1 4 5 6 4 7 10 8 6 4 4 6 5 3 3 9 13 12 8 6 8 9 10 11 11 7 5 6 8 8 7 7 7 7 6 6 8 6 6 6 6 4 3 2 2 3 2 3 5 5 5 6 7 6 5 5 5 6 5 6 5 5 6 6 6 6 4 2 2 6 7 6 3 1 1 2
10 17 14 9 12 11 20 12 10 9 6 4 8 16 17 12 10 9 4 4 4 7 8 8 1 1 4 4 9 10 11 10 9 7 8 9 10 8 7 7 7 7 6 4 5 5 4 5 5 6 5 4 4 3 3 3 2 2 3 4 5 5 7 6 6 5 6 6 6 6 6 5 6 5 6 6 6 5 3 3 5 4 5 3 3 4
21 21 15 17 18 21 8 16 17 15 10 15 21 22 17 9 9 11 13 10 9 6 8 10 7 2 6 5 4 8 8 10 11 7 6 6 5 5 7 10 11 9 8 7 8 6 5 5 4 4 4 4 4 3 3 3 2 2 2 3 4 5 5 6 6 5 4 5 6 6 7 6 6 5 5 6 6 6 6 5 2 4 6 6 5 6
Wind_Direction
148 172 187 194 180 170 174 181 169 177 172 143 96 94 158 169 281 281 262 257 136 87 232 211 226 233 254 254 264 203 151 242 263 257 249 256 254 242 237 235 236 235 236 238 229 219 204 206 208 210 205 209 205 202 198 201 206 204 204 195 206 205 204 203 202 202 198 200 204 209 207 212 210 205 202 204 205 208 212 208 212 210 207 202 201 199
170 185 210 187 161 161 168 136 104 94 95 139 144 131 139 175 210 233 196 6 321 157 289 332 213 243 242 253 258 219 194 249 239 237 243 246 245 253 248 244 234 235 265 248 251 227 209 209 206 201 205 201 203 208 200 204 206 205 201 203 210 204 204 206 205 201 200 201 203 200 208 207 213 202 198 209 209 207 205 207 206 207 210 201 196 188
193 207 181 154 139 138 135 135 139 143 134 120 150 165 141 244 243 281 270 320 301 83 258 342 249 258 249 256 263 250 213 235 230 211 229 224 235 240 239 245 247 251 246 231 242 218 211 209 208 203 206 208 211 209 208 211 207 205 205 210 211 209 204 206 205 204 208 206 207 208 209 205 211 205 203 209 205 200 210 211 205 206 206 207 209 204
190 218 163 151 130 133 123 137 138 123 128 135 99 131 202 220 143 269 294 10 357 148 275 185 304 279 272 251 253 256 209 232 234 223 237 212 227 227 232 228 240 243 244 238 235 219 207 206 206 205 209 210 207 213 215 211 209 208 212 210 210 211 205 206 205 206 211 208 209 211 212 208 205 201 200 207 205 203 208 214 208 209 204 203 209 205
189 140 143 147 161 157 160 163 145 149 172 206 162 152 155 144 226 150 219 323 326 327 34 289 300 283 238 262 267 251 241 255 261 260 265 259 238 249 289 294 229 236 232 239 247 223 200 200 208 205 208 200 208 213 213 208 207 209 211 210 207 207 206 206 204 204 204 202 209 213 217 215 216 206 196 202 211 211 209 208 204 209 205 208 210 206
120 164 129 132 145 147 131 153 174 135 149 174 248 177 178 172 163 226 11 76 9 284 340 108 308 259 257 240 240 246 318 235 256 245 249 248 240 239 248 251 252 248 241 235 240 232 203 206 212 211 202 203 213 213 215 207 209 210 214 211 208 207 207 208 205 200 191 200 203 197 199 207 206 209 184 197 200 210 207 205 201 195 196 203 208 205
169 211 159 162 158 161 166 175 192 158 159 146 234 177 169 163 148 137 169 118 261 215 291 39 218 271 326 292 254 247 239 249 273 250 262 262 255 233 232 241 245 241 247 243 255 255 206 212 204 209 206 211 214 221 212 208 215 214 217 211 205 207 208 206 203 192 193 203 205 206 208 210 210 213 219 212 214 215 211 196 200 199 194 199 201 204
124 162 132 129 141 159 162 184 210 156 133 206 231 160 126 117 131 160 111 133 230 257 300 34 109 256 284 258 248 212 272 276 281 269 250 255 255 246 238 238 240 241 239 240 242 247 232 222 207 214 213 208 216 218 192 216 216 213 214 207 206 209 209 204 198 193 196 203 205 207 211 211 215 215 218 205 212 207 195 197 201 198 195 195 198 199
148 162 162 157 163 163 193 191 149 162 148 219 190 151 151 147 159 124 110 126 191 38 282 344 281 301 232 275 302 259 264 266 262 264 257 241 243 247 243 242 240 238 240 232 248 249 235 226 225 231 226 222 224 207 205 211 212 213 213 211 210 212 210 206 196 196 199 204 203 205 208 213 218 218 219 209 203 202 196 201 197 197 193 191 196 197
297 178 181 159 156 195 174 145 160 159 141 279 117 75 91 85 74 117 118 113 329 103 260 204 186 238 276 262 270 332 248 244 243 248 251 237 233 234 240 249 245 240 237 226 235 249 245 234 233 229 237 230 221 216 209 214 207 207 205 206 206 213 209 205 200 199 201 202 202 205 209 213 216 210 211 195 206 206 192 204 200 195 192 189 191 194
159 3 76 138 197 170 113 24 162 153 102 139 105 97 72 58 87 50 73 93 61 260 237 197 201 156 299 221 210 187 218 206 222 251 255 257 251 246 239 241 245 238 229 226 238 251 255 251 253 239 231 235 236 216 207 213 209 204 202 205 207 213 207 202 203 198 202 201 202 208 209 212 214 206 202 202 209 199 187 205 201 196 195 185 188 187
58 109 151 262 77 123 98 87 9 24 143 136 110 131 111 26 28 42 11 37 178 262 261 262 183 169 223 292 266 239 274 227 210 211 219 229 233 232 229 230 242 259 253 252 252 257 254 273 262 251 254 247 239 221 218 217 208 203 205 203 210 213 207 203 202 200 204 202 205 210 210 211 212 205 202 206 209 198 194 199 197 189 183 186 186 188
73 185 255 325 275 148 142 104 337 59 185 111 125 137 141 179 92 278 46 246 223 218 231 226 174 69 242 229 264 269 248 257 217 222 231 225 228 231 241 258 253 254 262 261 253 255 264 255 265 260 260 257 234 223 218 215 209 208 205 203 207 214 207 206 199 202 204 203 207 208 209 212 209 207 207 208 210 200 200 195 191 178 192 186 189 193
305 303 331 294 108 268 156 158 161 130 217 137 147 154 136 137 159 216 208 343 302 280 275 310 113 278 278 294 223 236 238 226 230 226 235 236 250 262 248 268 293 278 260 264 271 276 271 262 260 258 256 247 239 225 218 213 211 210 210 207 208 217 206 205 203 206 206 209 211 209 210 212 206 211 208 210 209 203 198 191 192 189 192 187 187 197
117 302 239 162 214 186 183 182 176 149 149 181 125 166 177 167 167 192 178 196 211 187 206 287 100 235 113 246 285 252 265 301 280 251 244 251 253 262 295 292 276 281 275 262 263 260 261 260 249 249 243 244 238 230 218 210 210 206 213 210 214 218 208 202 206 204 210 213 213 211 212 212 209 210 209 211 207 197 190 189 190 193 193 194 200 201
187 164 314 200 281 169 178 181 123 126 134 208 175 70 134 218 120 155 203 123 168 133 30 214 212 200 179 258 283 232 264 294 284 271 263 269 252 307 298 273 256 252 257 261 259 261 259 259 263 255 249 240 236 235 231 219 207 207 214 213 218 218 212 206 203 208 210 214 210 211 211 212 209 209 208 208 197 195 190 187 190 192 193 198 198 203
127 241 326 314 49 139 163 141 31 159 164 195 116 201 208 100 92 110 51 13 96 53 254 148 296 279 294 300 265 256 15 281 286 267 252 255 285 316 285 281 270 243 249 245 245 252 263 270 258 250 250 251 238 232 225 222 212 210 208 211 216 219 217 210 207 210 208 209 208 213 212 210 208 204 204 203 197 193 186 185 192 192 195 193 190 191
160 147 353 73 142 341 206 233 144 28 153 92 186 211 165 122 113 125 167 348 71 177 256 113 237 285 43 280 326 291 236 258 257 246 252 276 301 277 258 258 269 279 266 268 263 264 266 265 268 270 261 248 241 228 225 223 217 215 213 214 215 215 214 213 204 204 203 203 207 207 207 208 206 205 205 200 194 186 181 189 189 187 179 192 194 184
117 81 5 12 128 323 347 111 73 354 350 176 191 184 136 210 228 264 97 182 166 218 266 293 296 266 205 235 331 245 209 241 250 248 284 276 277 246 253 264 273 269 280 290 309 310 296 279 275 274 273 272 265 262 250 248 217 216 219 214 210 217 218 214 207 204 204 202 203 201 200 199 200 199 197 193 184 178 187 190 190 190 195 185 168 164
69 122 299 333 122 211 89 165 187 190 354 39 87 164 55 102 312 135 204 169 117 227 76 285 37 254 191 219 196 264 213 227 251 251 223 235 234 236 252 265 268 296 315 308 298 295 289 285 276 277 283 297 304 310 298 287 289 242 235 215 218 229 221 213 209 202 206 201 195 191 186 192 190 188 187 186 183 187 193 193 190 190 181 186 171 178
93 116 127 244 312 120 162 210 205 167 158 135 152 187 211 360 244 100 18 139 181 172 187 197 311 271 261 218 189 208 222 225 199 224 238 252 266 246 241 246 260 265 272 271 274 285 290 292 300 304 305 302 308 305 311 303 278 301 314 262 248 220 215 209 204 193 202 186 196 185 189 186 185 188 189 188 190 190 193 190 187 187 188 157 179 173
98 103 135 160 130 209 258 308 194 160 175 163 162 194 173 110 135 166 225 43 100 114 215 144 248 266 271 174 201 229 229 236 201 207 256 265 239 235 244 254 242 265 262 258 262 268 284 295 308 318 327 323 321 319 326 318 279 270 253 245 244 246 233 219 215 205 198 191 187 191 188 189 187 187 186 187 187 190 188 185 184 181 160 178 179 174
141 89 110 141 207 162 258 324 242 334 116 169 154 205 172 156 99 154 196 224 64 290 107 158 300 278 243 234 225 216 220 292 7 69 248 248 243 239 241 234 238 230 258 278 285 284 274 269 280 294 296 302 293 292 288 285 255 243 239 234 232 206 225 217 228 227 215 197 194 198 194 187 188 182 185 185 186 188 184 180 174 164 170 168 160 164
88 100 89 16 63 299 337 4 347 283 132 157 278 169 158 197 183 160 143 175 167 207 202 308 269 249 284 236 252 262 267 254 260 144 252 280 278 276 273 291 292 298 281 280 281 276 267 258 259 284 282 268 257 242 229 223 230 230 223 223 216 218 215 206 199 197 197 192 198 187 173 182 173 175 179 183 179 176 172 166 165 165 158 153 150 152
103 251 120 126 64 340 345 347 349 330 241 220 196 184 191 155 108 138 101 68 139 216 156 119 229 261 267 353 302 310 262 260 257 261 195 236 267 259 266 269 266 279 299 300 299 292 302 300 279 247 244 252 257 272 286 282 274 261 253 226 230 235 222 203 185 177 176 172 172 168 170 173 169 174 178 178 176 177 167 162 153 152 147 142 141 140
99 173 145 154 165 169 187 195 199 196 195 144 60 117 133 168 147 131 203 131 215 261 160 186 237 240 296 317 331 290 308 297 233 233 253 229 243 267 271 271 293 302 281 286 291 308 300 282 282 277 255 241 245 262 279 301 312 317 320 291 298 266 213 206 190 175 161 165 163 168 171 173 174 181 181 174 172 164 157 149 148 144 144 147 139 137
114 137 186 172 178 194 183 52 70 95 88 174 193 134 123 99 166 126 122 135 221 179 182 226 227 120 254 246 271 278 275 255 253 270 228 245 249 250 261 271 277 281 272 264 263 271 303 287 257 249 255 240 242 249 267 300 311 316 328 324 323 315 277 267 182 174 162 163 167 164 171 172 177 171 163 157 147 138 139 143 142 143 142 142 141 139
97 150 213 183 193 161 157 151 167 132 159 160 144 169 163 157 163 162 183 224 122 105 240 238 216 203 227 251 265 268 284 281 288 269 266 273 262 243 232 281 311 295 271 260 261 255 244 256 271 258 248 239 234 234 261 258 279 297 297 288 295 4 27 330 121 144 147 149 153 161 160 158 145 139 136 129 130 133 131 129 130 129 131 137 140 142
152 191 194 127 184 84 116 151 165 145 161 168 165 161 168 173 169 188 215 218 147 204 228 244 142 219 221 199 224 220 220 228 238 239 226 232 279 276 308 330 294 272 281 280 258 246 240 244 241 241 237 235 215 233 234 221 234 234 244 226 155 138 151 151 121 121 120 119 121 107 99 96 91 101 117 124 124 126 127 126 125 123 126 125 122 116
151 207 168 161 143 92 36 149 169 149 157 158 169 175 177 169 192 204 220 216 183 217 229 122 165 228 211 201 201 226 218 214 237 262 298 284 244 257 309 289 275 275 271 263 253 237 233 240 240 238 243 243 216 212 210 209 205 199 198 198 175 163 169 141 132 135 124 116 111 110 103 104 105 108 112 117 120 120 119 118 118 116 108 100 105 110
167 216 141 125 126 133 5 80 62 153 147 173 194 187 182 188 200 209 217 218 198 238 247 246 299 273 236 215 222 261 226 293 312 285 253 248 256 242 234 250 257 257 262 269 275 263 257 275 283 267 239 233 220 212 205 202 197 191 189 181 179 175 176 149 140 141 143 139 139 134 123 122 120 120 115 111 111 115 117 115 113 108 105 107 111 112
186 196 142 133 146 199 335 110 83 88 133 161 188 206 207 202 208 214 218 208 179 226 235 242 270 251 157 192 254 242 201 215 231 236 255 263 242 217 202 232 239 248 252 255 262 286 296 275 249 228 228 227 227 221 208 201 195 190 195 181 181 176 169 160 156 154 156 152 149 150 141 139 134 124 123 122 124 124 119 115 112 111 115 118 115 115
145 135 152 162 155 197 297 134 117 106 97 264 244 214 207 207 216 233 233 210 209 216 203 206 236 230 159 166 182 244 243 254 270 271 264 256 248 187 206 220 232 239 245 253 270 273 256 248 243 234 237 226 224 219 219 193 179 201 193 186 189 156 170 171 162 155 152 156 154 152 144 143 136 131 130 128 124 123 120 119 117 121 127 128 130 127
109 122 139 154 151 145 177 147 117 113 184 225 228 201 178 191 204 211 223 218 220 168 217 217 233 170 162 162 181 209 214 227 222 232 222 228 237 212 225 233 235 240 247 247 244 248 255 254 260 246 225 218 217 217 201 185 190 188 177 171 151 175 179 172 169 163 158 157 158 151 148 144 137 132 131 128 130 130 129 131 133 133 129 128 128 126
141 133 142 139 104 147 190 122 120 198 229 235 61 146 175 197 200 209 223 216 215 213 231 243 241 160 179 187 184 203 209 223 231 247 257 238 209 204 212 226 235 241 253 260 260 248 241 246 268 263 244 229 215 202 169 183 168 149 158 163 167 182 168 177 163 170 160 158 154 150 149 144 139 135 137 138 137 134 131 130 127 128 135 137 138 140
157 143 143 56 125 66 105 155 183 222 231 64 46 149 184 194 205 207 231 229 221 211 216 225 233 212 197 204 212 209 208 251 284 262 254 264 206 222 224 233 239 231 242 239 227 240 222 220 226 227 239 211 176 178 183 183 166 158 164 165 174 168 169 165 166 167 161 163 162 161 156 149 145 142 145 144 143 140 137 138 145 142 139 128 116 115
160 124 137 127 226 158 185 181 218 2 340 250 180 217 182 193 173 179 225 245 214 214 211 226 232 223 228 217 197 216 210 349 286 268 231 230 235 219 224 237 223 219 224 242 208 231 215 216 214 229 198 178 183 177 187 167 164 158 152 163 172 169 167 167 175 173 172 169 168 165 162 158 151 152 153 152 149 150 149 149 145 142 141 134 138 139
171 155 166 142 263 122 154 189 296 257 251 241 220 191 175 180 154 172 183 259 204 214 209 219 225 214 225 216 187 166 91 248 271 261 250 217 223 224 230 242 245 229 231 241 237 250 246 242 249 241 187 182 188 188 159 156 158 155 167 174 167 171 174 181 186 177 176 177 173 169 166 164 158 155 157 159 161 156 152 144 141 150 157 149 150 145
340 133 159 163 146 92 140 184 202 211 230 238 167 168 148 119 123 107 66 269 228 192 200 209 218 212 210 196 181 142 158 211 242 245 237 184 216 214 218 221 224 221 222 222 221 238 232 235 214 197 156 154 186 185 160 159 157 161 177 179 180 183 183 193 184 178 181 176 168 163 161 158 159 159 160 164 163 159 157 159 156 149 141 138 131 131
131 150 152 121 147 198 185 189 215 214 238 205 174 142 154 131 120 107 36 253 118 173 199 198 210 203 200 197 173 172 185 217 238 245 228 195 195 202 193 210 207 209 221 236 249 227 219 166 122 124 169 191 199 153 162 159 167 179 178 178 174 192 203 195 175 156 133 135 146 150 153 158 160 164 164 163 153 152 149 138 136 142 135 129 128 129
147 201 191 189 190 178 178 233 323 277 259 240 224 178 143 144 128 138 215 224 195 184 184 186 201 196 196 188 171 191 211 214 224 155 99 144 134 171 91 71 157 161 180 196 224 104 131 139 155 169 191 189 146 149 152 159 163 184 176 166 178 203 180 136 125 131 134 137 143 150 154 154 161 159 150 142 144 135 131 141 141 137 135 134 131 127
163 168 230 149 183 189 201 203 232 271 225 188 225 164 164 110 184 211 205 175 161 202 194 185 197 202 189 185 188 209 213 219 125 92 117 159 173 178 155 141 124 112 131 180 155 134 125 123 103 94 76 112 145 150 154 155 168 163 156 161 196 168 127 134 133 133 138 145 147 146 145 146 133 135 139 132 134 135 135 129 131 137 138 136 137 134
178 169 187 190 166 41 57 205 47 251 236 144 118 123 283 182 222 138 160 152 198 183 169 201 192 186 169 192 203 211 224 213 199 194 170 170 166 172 180 169 171 167 160 138 114 135 136 127 120 112 140 163 149 157 164 160 164 162 156 183 184 160 153 144 145 144 146 147 150 155 154 152 149 145 144 144 145 142 139 143 139 139 141 140 137 135
152 168 183 203 178 180 181 190 210 225 86 145 144 182 199 196 199 166 135 184 246 178 181 173 201 184 182 182 195 212 220 203 215 198 187 205 221 175 137 149 136 120 124 131 143 152 128 118 121 123 121 131 151 156 165 166 163 166 174 189 149 149 136 139 142 141 143 150 150 147 146 145 140 138 144 146 145 143 145 150 148 146 152 151 146 144
192 197 181 185 178 190 201 211 46 229 162 171 175 177 175 207 187 209 176 163 165 223 200 160 192 191 194 191 193 198 200 203 203 186 184 205 198 191 189 192 184 173 168 154 164 156 147 151 153 139 123 122 147 161 166 167 156 159 180 163 146 146 141 133 130 132 137 142 147 145 142 135 141 147 149 158 154 152 155 151 154 150 159 154 155 157
189 184 109 116 224 291 312 210 245 134 210 215 258 185 175 198 211 133 171 140 224 168 171 183 190 190 190 176 155 199 211 202 189 205 214 205 190 192 146 135 136 140 131 120 127 153 144 124 128 138 146 142 145 159 160 163 158 169 186 151 158 148 143 139 136 138 142 140 140 140 137 131 127 139 152 159 167 164 163 160 163 159 160 165 165 165
247 131 87 168 172 134 238 203 154 202 192 207 209 233 303 242 172 162 146 227 228 173 193 244 177 182 176 163 179 182 192 174 192 206 197 175 182 180 179 172 176 175 171 174 170 144 137 144 143 154 159 168 202 163 160 149 156 155 140 160 155 151 147 149 148 145 147 152 146 145 151 149 153 153 157 162 155 154 162 166 164 160 165 172 167 167
228 187 135 196 160 188 236 124 186 192 198 199 200 182 194 194 160 190 203 190 176 172 171 168 116 115 129 177 189 171 180 179 175 191 190 200 190 178 176 177 172 179 193 161 155 158 144 155 161 166 169 181 190 177 141 127 127 141 144 148 152 147 145 148 158 159 164 162 162 165 169 164 164 162 166 174 168 164 168 185 181 176 178 178 177 169
124 115 203 173 177 218 343 243 185 121 322 259 275 272 248 207 191 201 196 167 155 152 154 162 165 170 176 190 162 149 156 195 194 182 184 182 172 176 188 179 178 176 160 162 173 166 170 167 166 173 174 175 157 135 115 106 101 132 143 148 145 151 147 152 149 148 152 158 157 167 170 167 169 171 166 163 164 157 170 176 186 189 196 329 326 220
127 194 195 140 211 202 212 188 129 147 227 233 232 218 222 216 200 187 148 169 181 172 170 155 125 240 204 159 171 170 176 190 194 176 183 182 187 181 159 162 167 160 165 158 142 160 143 158 158 162 166 149 146 148 139 127 116 119 128 141 153 154 153 150 149 150 166 169 171 166 165 163 167 162 161 162 162 147 105 114 150 162 168 201 174 145
187 193 158 192 199 218 160 135 181 200 206 197 200 208 204 187 174 180 192 193 202 198 176 151 127 126 204 238 198 186 196 179 185 170 171 185 188 166 164 159 161 165 169 159 149 162 160 150 143 137 148 160 155 152 150 144 144 132 134 150 169 166 158 154 157 170 167 175 185 182 176 168 166 168 160 162 159 159 153 125 91 141 161 166 162 155